Weather in Zalukodes

Russia / The Kabardino-Balkar Republic     43°50′12″N   43°09′04″E
temp.,
°C
wind,
m/s
gust,
m/s
humid.,
%
clouds,
%
prec.,
mm/h
press.,
hPa
HPBL,
m
26 february, fri
fri2600:00−2sw2272100 0.0 103021
03:00−3wsw1173100 0.0 103021
06:00−2sw2268100 0.0 102924
09:00+1sw4567100 0.0 1028135
12:00+5sse117382 0.0 1027120
15:00+5ese106962 0.0 1026146
18:00+2s1172100 0.0 102622
21:00+2sw236799 0.0 102622
27 february, sat
sat2700:00+2wsw236729 0.0 102422
03:00+1wsw236416 0.0 102322
06:00+1wsw22630 0.0 102222
09:00+4sw22610 0.0 102142
12:00+7ese11560 0.0 1018288
15:00+8n13600 0.0 1017668
18:00+3w11780 0.0 101822
21:00+3sw227844 0.0 101822
28 february, sun
sun2800:00+2wsw22713 0.0 101722
03:00+1w22774 0.0 101722
06:00+1se128682 0.0 101722
09:00+2ese248790 0.0 1016280
12:00+2ene2396100 0.0 1015215
15:00+1nne2399100 0.1 1016138
18:000nw2598100 2.4 1018384
21:000nne0199100 4.5 101968
1 march, mon
mon100:00−1n1198100 1.9 1020109
03:00−2nnw1298100 2.8 102194
06:00−2nnw0194100 0.5 102323
09:00−2ne1292100 0.9 1025276
12:00−1nne3493100 0.3 1025404
15:000n338999 0.6 1025475
18:00−1nne128896 0.2 102740
21:00−2w009297 0.4 102929
2 march, tue
tue200:00−3sw119198 0.1 102922
03:00−3wsw238295 0.1 102933
06:00−4sw336857 0.0 103033
09:00−1sw226449 0.0 1029135
12:00+1se11650 0.0 1027580
15:00+2e11630 0.0 1025879
18:00−1n128116 0.0 102527
21:00−2sw227924 0.0 102623